1512306000.86,60599,2.69,72646.0,-11.47,-13.73,-13.93,0,*6E
1512306002.12,60600,2.69,72648.3,-11.47,-13.47,-13.61,0,*67
1512306003.38,60601,2.69,72644.8,-11.47,-13.47,-13.61,0,*66
1512306004.64,60602,2.69,72652.0,-11.47,-13.37,-13.47,0,*66
1512306005.89,60603,2.69,72650.3,-11.47,-13.51,-13.65,0,*67
1512306007.18,60604,2.69,72650.0,-11.47,-13.37,-13.33,0,*63
1512306008.38,60605,2.69,72640.8,-11.49,-13.47,-13.47,0,*68
1512306009.64,60606,2.69,72646.8,-11.47,-13.37,-13.51,0,*65
1512306010.9,60607,2.69,72646.3,-11.49,-13.33,-13.37,0,*6E
1512306012.16,60608,2.69,72646.0,-11.51,-13.37,-13.43,0,*6F
1512306013.42,60609,2.69,72646.0,-11.49,-13.37,-13.37,0,*64
1512306014.68,60610,2.69,72646.3,-11.49,-13.37,-13.37,0,*6C
1512306015.95,60611,2.69,72648.3,-11.51,-13.23,-13.33,0,*65
1512306017.21,60612,2.69,72650.0,-11.51,-13.23,-13.33,0,*66
1512306018.5,60613,2.69,72648.3,-11.51,-13.33,-13.37,0,*62
1512306019.74,60614,2.69,72650.0,-11.51,-13.23,-13.23,0,*61
1512306020.98,60615,2.69,72648.8,-11.51,-13.19,-13.23,0,*69
1512306022.22,60616,2.69,72648.5,-11.55,-13.19,-13.23,0,*6E
1512306023.47,60617,2.69,72646.8,-11.55,-13.19,-13.23,0,*6F
1512306024.71,60618,2.69,72648.8,-11.55,-13.11,-13.23,0,*68
1512306025.95,60619,2.69,72654.0,-11.51,-13.19,-13.19,0,*6C
1512306027.19,60620,2.69,72650.8,-11.55,-13.11,-13.11,0,*62
1512306028.43,60621,2.69,72648.8,-11.55,-13.11,-13.23,0,*62
1512306029.68,60622,2.69,72652.8,-11.55,-13.19,-13.19,0,*60
1512306030.88,60623,2.69,72652.3,-11.57,-13.15,-13.15,0,*63
1512306032.09,60624,2.69,72648.5,-11.57,-13.11,-13.15,0,*60
1512306033.31,60625,2.69,72654.5,-11.57,-13.15,-13.19,0,*69
1512306034.55,60626,2.69,72650.0,-11.55,-13.11,-13.11,0,*64
1512306035.81,60627,2.69,72652.3,-11.57,-13.01,-13.01,0,*67
1512306037.07,60628,2.69,72650.0,-11.57,-13.01,-13.01,0,*68
1512306038.31,60629,2.69,72648.5,-11.57,-13.01,-12.97,0,*67
1512306039.6,60630,2.69,72652.3,-11.55,-12.71,-12.83,0,*6E
1512306040.81,60631,2.69,72652.5,-11.57,-12.89,-12.89,0,*60
1512306042.03,60632,2.69,72654.0,-11.57,-12.89,-12.97,0,*6C
1512306043.24,60633,2.69,72648.5,-11.57,-12.89,-12.89,0,*62
1512306044.5,60634,2.69,72652.3,-11.57,-12.83,-12.83,0,*65
1512306045.77,60635,2.69,72654.5,-11.57,-12.75,-12.83,0,*6D
1512306047.06,60636,2.69,72652.5,-11.55,-12.71,-12.71,0,*65
1512306048.36,60637,2.69,72652.0,-11.55,-12.71,-12.71,0,*64
1512306049.63,60638,2.69,72648.0,-11.57,-12.75,-12.71,0,*6D
1512306050.9,60639,2.69,72656.3,-11.57,-12.71,-12.71,0,*68
1512306052.2,60640,2.69,72654.8,-11.55,-12.71,-12.79,0,*6C
1512306053.49,60641,2.69,72654.3,-11.55,-12.71,-12.71,0,*65
1512306054.78,60642,2.69,72654.0,-11.55,-12.57,-12.65,0,*67
1512306056.08,60643,2.69,72650.3,-11.55,-12.65,-12.71,0,*62
1512306057.37,60644,2.69,72652.5,-11.55,-12.65,-12.79,0,*6D
1512306058.65,60645,2.69,72652.8,-11.55,-12.57,-12.65,0,*60
1512306059.94,60646,2.69,72654.3,-11.55,-12.65,-12.65,0,*62
1512306061.24,60647,2.69,72656.0,-11.55,-12.65,-12.71,0,*66
1512306062.52,60648,2.69,72658.5,-11.55,-12.65,-12.65,0,*6C
1512306063.8,60649,2.69,72654.3,-11.51,-12.57,-12.65,0,*68
1512306065.09,60650,2.69,72656.0,-11.51,-12.57,-12.57,0,*61
1512306066.37,60651,2.69,72656.3,-11.51,-12.65,-12.65,0,*60
1512306067.66,60652,2.69,72656.8,-11.51,-12.79,-12.79,0,*63
1512306068.95,60653,2.69,72652.3,-11.51,-12.65,-12.71,0,*67
1512306070.24,60654,2.69,72654.8,-11.51,-12.65,-12.57,0,*64
1512306071.5,60655,2.69,72654.3,-11.49,-12.65,-12.61,0,*69
1512306072.8,60656,2.69,72654.3,-11.51,-12.71,-12.71,0,*67
1512306074.08,60657,2.69,72652.0,-11.51,-12.71,-12.65,0,*63
1512306075.36,60658,2.69,72656.3,-11.51,-12.57,-12.57,0,*69
1512306076.61,60659,2.69,72656.8,-11.49,-12.53,-12.47,0,*64
1512306077.82,60660,2.69,72660.3,-11.49,-12.47,-12.47,0,*6B
1512306079.03,60661,2.69,72656.0,-11.49,-12.43,-12.43,0,*6A
1512306080.24,60662,2.69,72656.0,-11.49,-12.39,-12.47,0,*60
1512306081.51,60663,2.69,72658.0,-11.49,-12.57,-12.53,0,*6C
1512306082.77,60664,2.69,72658.3,-11.51,-12.43,-12.53,0,*67
1512306084.03,60665,2.69,72654.0,-11.49,-12.53,-12.61,0,*6F
1512306085.32,60666,2.69,72654.8,-11.51,-12.79,-12.75,0,*68
1512306086.57,60667,2.69,72662.0,-11.49,-12.53,-12.47,0,*69
1512306087.86,60668,2.69,72660.8,-11.47,-12.53,-12.61,0,*6C
1512306089.12,60669,2.69,72660.3,-11.49,-12.71,-12.61,0,*63
1512306090.38,60670,2.69,72662.8,-11.49,-12.61,-12.61,0,*6A
1512306091.65,60671,2.69,72662.0,-11.49,-12.53,-12.61,0,*6A
1512306092.91,60672,2.69,72660.0,-11.49,-12.53,-12.53,0,*68
1512306094.18,60673,2.69,72664.8,-11.49,-12.75,-12.75,0,*69
1512306095.42,60674,2.69,72668.3,-11.49,-12.79,-12.93,0,*6A
1512306096.66,60675,2.69,72660.0,-11.45,-13.01,-13.11,0,*62
1512306097.9,60676,2.69,72656.8,-11.47,-13.15,-13.19,0,*6E
1512306099.19,60677,2.69,72656.3,-11.47,-13.29,-13.33,0,*68
1512306100.48,60678,2.69,72652.8,-11.47,-13.61,-13.79,0,*65
1512306101.73,60679,2.69,72652.8,-11.47,-13.65,-13.79,0,*60
1512306102.94,60680,2.69,72646.5,-11.49,-13.73,-13.93,0,*6B
1512306104.19,60681,2.69,72648.8,-11.51,-13.65,-13.79,0,*60
1512306105.43,60682,2.69,72648.3,-11.51,-13.55,-13.65,0,*6D
1512306106.68,60683,2.69,72650.8,-11.51,-13.33,-13.43,0,*68
1512306107.92,60684,2.69,72650.8,-11.51,-13.23,-13.23,0,*68
1512306109.19,60685,2.69,72648.3,-11.49,-13.33,-13.33,0,*60
1512306110.44,60686,2.69,72652.3,-11.51,-13.33,-13.43,0,*6D
1512306111.71,60687,2.69,72648.8,-11.51,-13.69,-13.97,0,*6A
1512306112.97,60688,2.69,72648.3,-11.51,-13.37,-13.65,0,*63
1512306114.26,60689,2.69,72648.3,-11.55,-13.79,-13.97,0,*61
1512306115.52,60690,2.69,72642.8,-11.55,-13.55,-13.79,0,*67
1512306116.76,60691,2.69,72644.8,-11.57,-13.83,-14.11,0,*66
1512306117.99,60692,2.69,72644.3,-11.57,-13.87,-14.11,0,*61
1512306119.26,60693,2.69,72640.5,-11.57,-13.83,-14.01,0,*65
1512306120.48,60694,2.69,72638.8,-11.57,-14.11,-14.29,0,*64
1512306121.73,60695,2.69,72640.3,-11.57,-14.01,-14.15,0,*6B
1512306122.94,60696,2.69,72644.0,-11.61,-14.29,-14.37,0,*67
1512306124.19,60697,2.69,72642.8,-11.61,-14.05,-14.15,0,*68
1512306125.45,60698,2.69,72640.8,-11.59,-13.87,-14.11,0,*65
1512306126.69,60699,2.69,72646.0,-11.61,-13.93,-14.01,0,*6B
1512306127.9,60700,2.69,72644.5,-11.65,-13.51,-13.69,0,*69
1512306129.11,60701,2.69,72640.3,-11.65,-13.65,-13.69,0,*6F
1512306130.35,60702,2.69,72646.8,-11.65,-13.69,-13.83,0,*64
1512306131.58,60703,2.69,72644.8,-11.65,-13.79,-13.93,0,*65
1512306132.85,60704,2.69,72640.5,-11.67,-13.69,-13.83,0,*60
1512306134.13,60705,2.69,72638.5,-11.67,-13.79,-13.83,0,*60
1512306135.43,60706,2.69,72634.5,-11.67,-13.83,-14.05,0,*6F
1512306136.7,60707,2.69,72636.5,-11.67,-14.05,-14.19,0,*6A
1512306138.0,60708,2.69,72634.5,-11.67,-13.83,-13.97,0,*6D
1512306139.24,60709,2.69,72632.5,-11.65,-13.93,-14.05,0,*63
1512306140.48,60710,2.69,72636.3,-11.69,-13.69,-13.83,0,*6B
1512306141.72,60711,2.69,72640.3,-11.69,-13.55,-13.83,0,*65
1512306143.03,60712,2.69,72640.8,-11.71,-13.97,-14.01,0,*6C
1512306144.26,60713,2.69,72636.0,-11.69,-13.61,-13.73,0,*6F
1512306145.48,60714,2.69,72632.5,-11.69,-13.55,-13.73,0,*6F
1512306146.7,60715,2.69,72640.3,-11.69,-13.51,-13.55,0,*6E
1512306147.97,60716,2.69,72638.3,-11.71,-13.29,-13.51,0,*6F
1512306149.19,60717,2.69,72640.3,-11.69,-13.23,-13.43,0,*6E
1512306150.4,60718,2.69,72636.3,-11.69,-13.15,-13.43,0,*64
1512306151.67,60719,2.69,72642.0,-11.71,-13.37,-13.51,0,*6F
1512306152.92,60720,2.69,72636.8,-11.71,-13.23,-13.43,0,*63
1512306154.18,60721,2.69,72636.8,-11.71,-13.15,-13.37,0,*64
1512306155.39,60722,2.69,72640.3,-11.69,-13.11,-13.15,0,*6A
1512306156.66,60723,2.69,72644.5,-11.71,-12.83,-13.11,0,*6C
1512306157.9,60724,2.69,72644.0,-11.69,-12.83,-13.11,0,*62
1512306159.17,60725,2.69,72650.8,-11.71,-12.61,-12.89,0,*66
1512306160.44,60726,2.69,72646.8,-11.69,-12.61,-12.75,0,*6F
1512306161.7,60727,2.69,72640.8,-11.69,-12.61,-12.75,0,*6E
1512306162.97,60728,2.69,72648.0,-11.69,-12.71,-12.83,0,*69
1512306164.27,60729,2.69,72648.8,-11.71,-13.01,-13.29,0,*66
1512306165.48,60730,2.69,72640.8,-11.69,-12.89,-13.15,0,*69
1512306166.73,60731,2.69,72642.8,-11.69,-12.75,-12.89,0,*6F
1512306167.97,60732,2.69,72646.8,-11.69,-12.75,-12.97,0,*63
1512306169.22,60733,2.69,72640.3,-11.69,-12.75,-12.97,0,*62
1512306170.44,60734,2.69,72640.0,-11.69,-12.97,-13.11,0,*66
1512306171.68,60735,2.69,72634.3,-11.69,-12.75,-12.89,0,*6B
1512306172.95,60736,2.69,72640.8,-11.69,-12.83,-12.75,0,*62
1512306174.25,60737,2.69,72642.0,-11.67,-12.71,-12.71,0,*64
1512306175.53,60738,2.69,72650.3,-11.67,-12.65,-12.65,0,*6B
1512306176.8,60739,2.69,72646.0,-11.65,-12.57,-12.65,0,*69
1512306178.09,60740,2.75,72640.0,-11.67,-12.65,-12.79,0,*69
1512306179.35,60741,2.69,72634.8,-11.65,-12.57,-12.57,0,*67
1512306180.64,60742,2.69,72636.3,-11.67,-12.79,-12.83,0,*63
1512306181.94,60743,2.69,72636.0,-11.67,-12.83,-12.79,0,*62
1512306183.16,60744,2.69,72638.8,-11.65,-12.97,-12.97,0,*62
1512306184.37,60745,2.69,72646.0,-11.65,-12.97,-13.07,0,*6B
1512306185.66,60746,2.69,72644.5,-11.67,-12.83,-12.83,0,*62
1512306186.93,60747,2.69,72642.0,-11.65,-12.71,-12.71,0,*61
1512306188.19,60748,2.69,72644.3,-11.65,-12.57,-12.65,0,*6F
1512306189.46,60749,2.69,72640.5,-11.65,-12.57,-12.57,0,*6F
1512306190.72,60750,2.69,72644.8,-11.65,-12.57,-12.65,0,*66
1512306191.98,60751,2.69,72646.5,-11.65,-12.57,-12.65,0,*67
1512306193.26,60752,2.69,72644.8,-11.65,-12.65,-12.71,0,*60
1512306194.52,60753,2.69,72648.0,-11.65,-12.57,-12.57,0,*64
1512306195.79,60754,2.69,72642.0,-11.65,-12.57,-12.57,0,*63
1512306197.05,60755,2.69,72646.5,-11.65,-12.57,-12.57,0,*62
1512306198.31,60756,2.69,72644.0,-11.61,-12.61,-12.61,0,*65
1512306199.58,60757,2.69,72642.5,-11.61,-12.65,-12.79,0,*69
1512306200.85,60758,2.69,72646.0,-11.61,-12.75,-12.75,0,*6B
1512306202.12,60759,2.69,72646.8,-11.61,-12.53,-12.53,0,*6A
1512306203.41,60760,2.75,72648.8,-11.59,-12.75,-12.83,0,*62
1512306204.68,60761,2.69,72644.8,-11.61,-12.71,-12.79,0,*69
1512306205.92,60762,2.69,72642.0,-11.61,-13.01,-12.93,0,*68
1512306207.16,60763,2.69,72642.3,-11.61,-13.01,-13.07,0,*65
1512306208.36,60764,2.69,72640.0,-11.61,-13.07,-13.15,0,*67
1512306209.58,60765,2.69,72644.8,-11.61,-13.15,-13.19,0,*69
1512306210.84,60766,2.69,72644.0,-11.61,-13.01,-13.01,0,*66
1512306212.06,60767,2.69,72640.3,-11.61,-12.89,-12.93,0,*6C
1512306213.32,60768,2.75,72642.0,-11.61,-12.65,-12.75,0,*69
1512306214.56,60769,2.75,72644.8,-11.61,-12.75,-12.89,0,*6A
1512306215.78,60770,2.69,72646.0,-11.61,-12.89,-12.93,0,*6A
1512306217.02,60771,2.69,72646.5,-11.61,-12.79,-12.93,0,*64
1512306218.28,60772,2.69,72646.3,-11.61,-12.65,-12.79,0,*6E
1512306219.55,60773,2.69,72642.3,-11.65,-12.71,-12.83,0,*6B
1512306220.82,60774,2.69,72640.5,-11.65,-12.57,-12.71,0,*65
1512306222.07,60775,2.69,72648.5,-11.61,-12.47,-12.53,0,*61
1512306223.31,60776,2.69,72648.8,-11.61,-12.47,-12.53,0,*62
1512306224.54,60777,2.69,72650.8,-11.61,-12.43,-12.57,0,*63
1512306225.78,60778,2.69,72648.0,-11.59,-12.39,-12.47,0,*6B
1512306227.0,60779,2.69,72648.3,-11.61,-12.29,-12.43,0,*64
1512306228.24,60780,2.69,72650.8,-11.61,-12.35,-12.43,0,*6F
1512306229.48,60781,2.69,72650.3,-11.59,-12.43,-12.43,0,*64
1512306230.72,60782,2.75,72652.8,-11.59,-12.39,-12.47,0,*6E
1512306231.96,60783,2.69,72650.5,-11.59,-12.29,-12.39,0,*67
1512306233.23,60784,2.69,72650.3,-11.59,-12.47,-12.57,0,*60
1512306234.46,60785,2.75,72650.3,-11.59,-12.43,-12.39,0,*6D
1512306235.71,60786,2.69,72648.3,-11.59,-12.29,-12.39,0,*62
1512306236.95,60787,2.69,72652.0,-11.59,-12.39,-12.43,0,*6F
1512306238.19,60788,2.75,72652.5,-11.59,-12.39,-12.43,0,*60
1512306239.4,60789,2.69,72654.5,-11.57,-12.39,-12.43,0,*6F
1512306240.62,60790,2.75,72654.3,-11.57,-12.29,-12.39,0,*6B
1512306241.83,60791,2.75,72654.5,-11.57,-12.39,-12.43,0,*66
1512306243.04,60792,2.69,72648.5,-11.57,-12.39,-12.43,0,*65
1512306244.31,60793,2.69,72652.0,-11.55,-12.25,-12.35,0,*6A
1512306245.59,60794,2.69,72650.5,-11.55,-12.25,-12.35,0,*6D
1512306246.8,60795,2.69,72654.0,-11.57,-12.25,-12.25,0,*6F
1512306248.07,60796,2.69,72652.5,-11.55,-12.35,-12.39,0,*62
1512306249.34,60797,2.75,72656.8,-11.55,-12.35,-12.43,0,*6E
1512306250.58,60798,2.69,72654.0,-11.51,-12.25,-12.25,0,*64
1512306251.84,60799,2.69,72652.3,-11.51,-12.35,-12.39,0,*69
1512306253.08,60800,2.69,72652.5,-11.51,-12.39,-12.43,0,*67
1512306254.31,60801,2.69,72654.3,-11.51,-12.39,-12.43,0,*66
1512306255.58,60802,2.69,72652.8,-11.51,-12.39,-12.35,0,*64
1512306256.87,60803,2.75,72656.8,-11.51,-12.35,-12.35,0,*69
1512306258.16,60804,2.75,72654.8,-11.51,-12.35,-12.35,0,*6E
1512306259.38,60805,2.75,72656.5,-11.49,-12.21,-12.21,0,*66
1512306260.63,60806,2.69,72654.3,-11.49,-12.21,-12.15,0,*62
1512306261.87,60807,2.69,72652.3,-11.49,-12.15,-12.21,0,*63
1512306263.16,60808,2.75,72654.3,-11.51,-12.35,-12.35,0,*62
1512306264.38,60809,2.69,72654.0,-11.49,-12.29,-12.29,0,*6A
1512306265.63,60810,2.75,72656.0,-11.49,-12.21,-12.35,0,*67
1512306266.87,60811,2.75,72656.3,-11.49,-12.15,-12.29,0,*6C
1512306268.09,60812,2.75,72654.3,-11.49,-12.21,-12.21,0,*60
1512306269.33,60813,2.69,72652.0,-11.49,-12.03,-12.07,0,*65
1512306270.57,60814,2.69,72654.8,-11.49,-12.03,-12.07,0,*62
1512306271.84,60815,2.75,72654.3,-11.47,-12.07,-12.21,0,*6D
1512306273.13,60816,2.75,72658.8,-11.47,-12.07,-12.15,0,*69
1512306274.42,60817,2.69,72652.0,-11.47,-12.07,-12.15,0,*68
1512306275.68,60818,2.75,72656.3,-11.47,-12.03,-12.15,0,*63
1512306276.97,60819,2.75,72656.8,-11.47,-12.07,-12.15,0,*66
1512306278.21,60820,2.69,72654.3,-11.45,-12.03,-12.11,0,*6E
1512306279.47,60821,2.75,72658.8,-11.43,-12.03,-12.11,0,*69
1512306280.72,60822,2.75,72658.5,-11.43,-12.03,-12.15,0,*6E
1512306281.98,60823,2.75,72656.3,-11.43,-12.03,-12.15,0,*6F
1512306283.27,60824,2.75,72656.3,-11.43,-12.11,-12.15,0,*6B
1512306284.53,60825,2.75,72656.8,-11.41,-12.07,-12.07,0,*6C
1512306285.82,60826,2.69,72652.8,-11.43,-12.11,-12.15,0,*69
1512306287.1,60827,2.69,72656.5,-11.43,-12.11,-12.15,0,*68
1512306288.39,60828,2.69,72654.5,-11.43,-12.15,-12.15,0,*63
1512306289.65,60829,2.69,72652.3,-11.41,-12.11,-12.11,0,*60
1512306290.89,60830,2.75,72658.3,-11.41,-12.07,-12.25,0,*68
1512306292.11,60831,2.75,72654.3,-11.41,-12.21,-12.21,0,*69
1512306293.37,60832,2.69,72652.5,-11.43,-12.15,-12.25,0,*6B
1512306294.6,60833,2.69,72654.5,-11.41,-12.11,-12.25,0,*6C
1512306295.82,60834,2.75,72654.8,-11.41,-12.25,-12.25,0,*6C
1512306297.03,60835,2.75,72652.8,-11.41,-12.25,-12.29,0,*61
1512306298.24,60836,2.75,72656.5,-11.41,-12.25,-12.25,0,*6E
1512306299.46,60837,2.75,72652.8,-11.41,-12.21,-12.25,0,*6B
1512306300.7,60838,2.75,72656.8,-11.41,-12.11,-12.21,0,*63
1512306301.93,60839,2.69,72652.5,-11.39,-12.25,-12.21,0,*6A
1512306303.14,60840,2.75,72654.8,-11.41,-12.21,-12.25,0,*6B
1512306304.38,60841,2.75,72656.5,-11.41,-12.11,-12.21,0,*6D
1512306305.6,60842,2.75,72658.8,-11.41,-12.25,-12.25,0,*6D
1512306306.81,60843,2.75,72658.3,-11.41,-12.21,-12.25,0,*68
1512306308.04,60844,2.75,72658.3,-11.39,-12.21,-12.21,0,*64
1512306309.29,60845,2.75,72658.0,-11.39,-12.11,-12.25,0,*62
1512306310.52,60846,2.75,72660.0,-11.39,-12.21,-12.25,0,*62
1512306311.77,60847,2.75,72662.8,-11.39,-12.11,-12.21,0,*64
1512306313.02,60848,2.75,72660.5,-11.39,-12.11,-12.21,0,*6B
1512306314.23,60849,2.75,72662.3,-11.39,-12.39,-12.25,0,*64
1512306315.51,60850,2.69,72660.0,-11.37,-12.25,-12.35,0,*6E
1512306316.79,60851,2.69,72654.5,-11.37,-12.25,-12.35,0,*6F
1512306318.03,60852,2.75,72654.0,-11.37,-12.25,-12.39,0,*60
1512306319.28,60853,2.75,72646.5,-11.37,-12.39,-12.47,0,*65
1512306320.55,60854,2.75,72646.8,-11.37,-12.79,-12.93,0,*6F
1512306321.82,60855,2.75,72640.5,-11.37,-12.75,-12.89,0,*69
1512306323.11,60856,2.69,72636.8,-11.37,-12.65,-12.65,0,*69
1512306324.35,60857,2.75,72642.8,-11.39,-12.83,-12.93,0,*67
1512306325.63,60858,2.75,72642.0,-11.37,-12.75,-12.93,0,*6F
1512306326.9,60859,2.75,72648.8,-11.39,-12.65,-12.71,0,*6D
1512306328.18,60860,2.75,72644.0,-11.39,-12.53,-12.71,0,*62
1512306329.43,60861,2.75,72648.3,-11.39,-12.79,-12.93,0,*67
1512306330.65,60862,2.75,72650.0,-11.39,-13.07,-13.19,0,*6F
1512306331.87,60863,2.69,72644.5,-11.39,-13.07,-13.15,0,*62
1512306333.08,60864,2.75,72646.5,-11.41,-12.97,-13.11,0,*66
1512306334.29,60865,2.75,72644.0,-11.41,-13.07,-13.11,0,*6F
1512306335.55,60866,2.75,72648.5,-11.41,-13.29,-13.29,0,*6B
1512306336.78,60867,2.75,72648.3,-11.43,-13.23,-13.15,0,*6D
1512306338.04,60868,2.75,72650.8,-11.43,-13.33,-13.43,0,*60
1512306339.27,60869,2.75,72654.3,-11.43,-13.11,-13.11,0,*66
1512306340.56,60870,2.75,72652.3,-11.43,-13.01,-13.01,0,*6E
1512306341.84,60871,2.75,72648.0,-11.43,-12.83,-12.83,0,*6F
1512306343.11,60872,2.75,72652.8,-11.45,-12.71,-12.71,0,*6A
1512306344.37,60873,2.75,72654.8,-11.45,-12.71,-12.61,0,*6A
1512306345.64,60874,2.75,72654.8,-11.45,-12.57,-12.57,0,*6C
1512306346.92,60875,2.75,72652.3,-11.43,-12.61,-12.57,0,*6E
1512306348.18,60876,2.75,72652.0,-11.43,-12.35,-12.47,0,*6D
1512306349.42,60877,2.75,72658.5,-11.43,-12.47,-12.47,0,*69
1512306350.65,60878,2.75,72654.5,-11.43,-12.43,-12.43,0,*66
1512306351.92,60879,2.75,72658.8,-11.43,-12.35,-12.43,0,*66
1512306353.2,60880,2.75,72656.5,-11.43,-12.61,-12.83,0,*6D
1512306354.49,60881,2.75,72652.0,-11.43,-12.71,-12.75,0,*64
1512306355.75,60882,2.75,72654.8,-11.43,-12.83,-12.89,0,*69
1512306357.01,60883,2.75,72652.0,-11.43,-12.83,-12.89,0,*68
1512306358.3,60884,2.75,72652.3,-11.43,-12.71,-12.75,0,*61
1512306359.54,60885,2.75,72652.0,-11.45,-12.83,-12.89,0,*68
1512306360.81,60886,2.75,72654.5,-11.45,-12.71,-12.71,0,*61
1512306362.08,60887,2.75,72656.8,-11.45,-12.57,-12.71,0,*64
1512306363.34,60888,2.75,72654.5,-11.45,-12.61,-12.71,0,*6E
1512306364.58,60889,2.75,72652.5,-11.45,-12.47,-12.57,0,*6F
1512306365.85,60890,2.75,72654.8,-11.45,-12.57,-12.71,0,*62
1512306367.14,60891,2.75,72656.8,-11.47,-12.53,-12.53,0,*65
1512306368.41,60892,2.75,72656.5,-11.45,-12.35,-12.35,0,*64
1512306369.65,60893,2.69,72654.0,-11.47,-12.39,-12.39,0,*67
1512306370.92,60894,2.75,72658.8,-11.45,-12.35,-12.35,0,*62
1512306372.16,60895,2.75,72656.8,-11.45,-12.35,-12.43,0,*62
1512306373.4,60896,2.75,72658.5,-11.45,-12.43,-12.35,0,*61
1512306374.67,60897,2.75,72656.5,-11.45,-12.35,-12.35,0,*61
1512306375.88,60898,2.75,72658.8,-11.45,-12.43,-12.43,0,*6E
1512306377.16,60899,2.75,72656.3,-11.47,-12.61,-12.61,0,*6D
1512306378.42,60900,2.75,72660.5,-11.45,-12.61,-12.61,0,*6E
1512306379.68,60901,2.75,72660.8,-11.45,-12.57,-12.57,0,*6F
1512306380.97,60902,2.75,72660.3,-11.43,-12.57,-12.61,0,*6F
1512306382.23,60903,2.69,72654.8,-11.45,-12.57,-12.61,0,*68
1512306383.45,60904,2.75,72660.5,-11.45,-12.47,-12.47,0,*6A
1512306384.66,60905,2.75,72656.5,-11.45,-12.47,-12.47,0,*6B
1512306385.92,60906,2.75,72652.3,-11.45,-12.57,-12.57,0,*68
1512306387.21,60907,2.75,72654.8,-11.43,-12.61,-12.71,0,*6E
1512306388.47,60908,2.75,72652.0,-11.43,-12.83,-12.89,0,*6A
1512306389.68,60909,2.75,72648.8,-11.41,-12.93,-12.93,0,*63
1512306390.9,60910,2.75,72642.8,-11.45,-13.11,-13.11,0,*6F
1512306392.1,60911,2.75,72644.5,-11.45,-13.15,-13.15,0,*6E
1512306393.33,60912,2.75,72642.0,-11.45,-13.61,-13.69,0,*65
1512306394.59,60913,2.75,72642.3,-11.47,-13.73,-13.79,0,*64
1512306395.85,60914,2.75,72646.3,-11.47,-13.61,-13.65,0,*6D
1512306397.12,60915,2.75,72646.8,-11.45,-13.37,-13.33,0,*6E
1512306398.37,60916,2.75,72646.3,-11.47,-13.19,-13.19,0,*6B
1512306399.6,60917,2.75,72642.8,-11.47,-13.07,-13.15,0,*69
1512306400.87,60918,2.75,72644.8,-11.49,-13.29,-13.29,0,*6B
1512306402.1,60919,2.75,72644.3,-11.51,-13.43,-13.51,0,*60
1512306403.37,60920,2.75,72644.3,-11.51,-13.37,-13.51,0,*69
1512306404.63,60921,2.75,72646.8,-11.51,-13.23,-13.33,0,*69
1512306405.87,60922,2.75,72648.5,-11.51,-13.19,-13.23,0,*62
1512306407.11,60923,2.75,72650.8,-11.51,-13.11,-13.19,0,*62
1512306408.37,60924,2.75,72648.5,-11.51,-12.83,-12.97,0,*68
1512306409.64,60925,2.75,72646.3,-11.55,-12.83,-12.93,0,*69
1512306410.9,60926,2.75,72646.5,-11.55,-12.83,-12.97,0,*6E
1512306412.14,60927,2.75,72646.5,-11.51,-12.93,-13.07,0,*62
1512306413.38,60928,2.75,72648.0,-11.55,-13.19,-13.19,0,*65
1512306414.62,60929,2.75,72644.5,-11.55,-13.07,-13.07,0,*64
1512306415.87,60930,2.75,72644.3,-11.55,-12.93,-12.93,0,*6C
1512306417.1,60931,2.75,72648.3,-11.55,-12.97,-13.07,0,*65
1512306418.34,60932,2.75,72644.3,-11.55,-13.07,-13.07,0,*6E
1512306419.59,60933,2.75,72644.3,-11.55,-13.11,-13.19,0,*67
1512306420.83,60934,2.75,72644.0,-11.55,-13.07,-13.19,0,*67
1512306422.07,60935,2.75,72642.3,-11.57,-13.23,-13.37,0,*6E
1512306423.33,60936,2.75,72642.5,-11.57,-13.29,-13.37,0,*67
1512306424.59,60937,2.75,72646.5,-11.57,-13.37,-13.29,0,*66
1512306425.84,60938,2.75,72644.3,-11.55,-13.11,-13.19,0,*6C
1512306427.04,60939,2.75,72646.5,-11.57,-13.15,-13.15,0,*67
1512306428.31,60940,2.75,72644.3,-11.59,-13.01,-13.23,0,*67
1512306429.58,60941,2.75,72644.3,-11.59,-13.01,-13.11,0,*67
1512306430.81,60942,2.75,72646.5,-11.59,-13.11,-13.11,0,*65
1512306432.07,60943,2.75,72644.8,-11.59,-12.89,-13.01,0,*65
1512306433.36,60944,2.75,72648.3,-11.59,-12.83,-12.83,0,*63
1512306434.62,60945,2.75,72644.5,-11.59,-12.83,-12.89,0,*68
1512306435.87,60946,2.75,72650.5,-11.59,-12.97,-12.97,0,*61
1512306437.08,60947,2.75,72650.3,-11.61,-12.89,-12.93,0,*60
1512306438.37,60948,2.75,72648.3,-11.59,-12.83,-12.83,0,*6F
1512306439.66,60949,2.75,72650.5,-11.59,-12.57,-12.61,0,*6B
1512306440.92,60950,2.75,72648.8,-11.57,-12.61,-12.75,0,*6D
1512306442.16,60951,2.75,72650.5,-11.57,-12.75,-12.89,0,*6A
1512306443.41,60952,2.75,72654.0,-11.57,-12.75,-12.89,0,*69
1512306444.65,60953,2.75,72650.3,-11.57,-12.75,-12.89,0,*68
1512306445.94,60954,2.75,72650.3,-11.59,-12.75,-12.75,0,*62
1512306447.21,60955,2.75,72650.8,-11.61,-12.75,-12.75,0,*68
1512306448.5,60956,2.75,72650.0,-11.59,-12.83,-12.75,0,*69
1512306449.79,60957,2.75,72652.8,-11.59,-12.61,-12.83,0,*6D
1512306451.05,60958,2.75,72652.0,-11.61,-13.01,-13.01,0,*65
1512306452.29,60959,2.75,72644.8,-11.59,-12.97,-13.11,0,*60
1512306453.53,60960,2.75,72644.8,-11.61,-13.01,-13.15,0,*6B
1512306454.82,60961,2.75,72648.5,-11.59,-13.29,-13.37,0,*6B
1512306456.05,60962,2.75,72650.8,-11.59,-13.47,-13.47,0,*67
1512306457.29,60963,2.75,72648.5,-11.59,-13.43,-13.55,0,*61
1512306458.55,60964,2.75,72650.3,-11.61,-13.33,-13.33,0,*6A
1512306459.79,60965,2.75,72646.8,-11.61,-13.01,-13.07,0,*6D
1512306461.03,60966,2.75,72648.0,-11.61,-12.79,-12.89,0,*67
1512306462.24,60967,2.75,72646.5,-11.61,-12.93,-13.07,0,*65
1512306463.5,60968,2.75,72644.3,-11.61,-13.01,-13.01,0,*66
1512306464.71,60969,2.75,72650.3,-11.61,-12.89,-12.89,0,*67
1512306465.98,60970,2.75,72650.8,-11.61,-12.79,-12.79,0,*6F
1512306467.25,60971,2.75,72650.3,-11.61,-12.79,-12.79,0,*6E
1512306468.48,60972,2.75,72650.5,-11.61,-12.89,-13.01,0,*6C
1512306469.71,60973,2.75,72648.8,-11.61,-12.89,-13.01,0,*6D
1512306470.93,60974,2.75,72652.8,-11.61,-12.89,-12.93,0,*60
1512306472.2,60975,2.75,72648.5,-11.61,-12.75,-12.79,0,*66
1512306473.49,60976,2.75,72652.5,-11.59,-12.71,-12.83,0,*6F
1512306474.75,60977,2.75,72650.3,-11.61,-12.65,-12.75,0,*69
1512306476.05,60978,2.75,72650.8,-11.59,-12.57,-12.71,0,*68
1512306477.34,60979,2.75,72656.8,-11.59,-12.61,-12.71,0,*6C
1512306478.63,60980,2.75,72648.5,-11.59,-12.71,-12.61,0,*6A
1512306479.9,60981,2.75,72648.5,-11.61,-12.75,-12.79,0,*6D
1512306481.16,60982,2.75,72650.0,-11.61,-13.01,-13.01,0,*62
1512306482.42,60983,2.75,72650.8,-11.61,-13.01,-13.01,0,*63
1512306483.69,60984,2.75,72648.5,-11.61,-12.65,-12.79,0,*69
1512306484.95,60985,2.75,72648.8,-11.61,-12.65,-12.75,0,*64
1512306486.19,60986,2.75,72648.0,-11.61,-12.93,-13.01,0,*6C
1512306487.46,60987,2.75,72648.8,-11.61,-12.75,-12.79,0,*6B
1512306488.7,60988,2.75,72650.8,-11.61,-12.93,-13.01,0,*62
1512306489.99,60989,2.75,72650.8,-11.59,-12.71,-12.83,0,*6F
1512306491.22,60990,2.75,72648.0,-11.61,-13.01,-13.15,0,*64
1512306492.46,60991,2.75,72650.8,-11.59,-12.89,-12.97,0,*64
1512306493.73,60992,2.75,72650.0,-11.61,-12.75,-12.79,0,*6F
1512306494.99,60993,2.75,72648.3,-11.61,-13.01,-13.01,0,*62
1512306496.23,60994,2.75,72648.5,-11.61,-12.79,-12.93,0,*61
1512306497.47,60995,2.75,72654.3,-11.61,-12.79,-12.89,0,*6B
1512306498.72,60996,2.75,72650.3,-11.61,-12.75,-12.89,0,*64
1512306500.01,60997,2.75,72650.0,-11.59,-12.75,-12.83,0,*64
1512306501.27,60998,2.75,72652.5,-11.59,-12.47,-12.61,0,*66